Location: T�bingen+AIT
(48.5342°N, 9.0700°E)
Time: 20:28:08
(UTC+02:00)

H-2A R/B - Pass Details

Date: 14 September 2017
Orbit: 734 x 837 km, 98.4° (Epoch: 19 September)

Event Time Altitude Azimuth Distance (km) Brightness Sun altitude
Exits shadow 22:25:29 65° 41° (NE) 811 2.0 -26.1°
Drops below altitude 10° 22:30:02 10° 350° (N) 2,270 5.1 -26.7°
Sets 22:32:21 0° 348° (NNW) 3,209 6.0 -27.0°
